Home > Weather > Almaty > Past weeks

Flag for Kazakhstan Past Weather in Almaty, Kazakhstan — Yesterday and Last 2 Weeks

Now
57 °F

Passing clouds.


Feels Like: 57 °F
Forecast: 57 / 87 °F
Wind: 3 mph from South

Location: Almaty Airport

Current Time: Aug 25, 2016 at 2:01:21 AM

Latest Report: Aug 25, 2016 at 1:30 AM


Visibility: N/A

Pressure: 29.95 "Hg (27.26 "Hg at 790m altitude)

Humidity: 72%

Dew Point: 48 °F

Location of AlmatyLocation

Past Weather in Almaty — Graph

°F

Almaty Temperature Yesterday

Maximum temperature yesterday: 82 °F (at 5:30 PM)
Minimum temperature yesterday: 48 °F (at 4:30 AM)
Average temperature yesterday: 65 °F

High & Low Weather Summary for the Past Weeks

 TemperatureHumidityPressure
High90 °F (Aug 11, 4:30 PM)83% (Aug 11, 2:30 AM)30.12 "Hg (Aug 11, 2:30 AM)
Low48 °F (Aug 24, 4:30 AM)17% (Aug 14, 3:00 PM)29.77 "Hg (Aug 10, 12:00 PM)
Average70 °F49%29.89 "Hg
* Reported Aug 10 1:00 AM — Aug 25 1:00 AM, Almaty, Weather by CustomWeather, © 2016

Note: Actual official high and low records may vary slightly from our data, if they occured in-between our weather recording intervals... More about our weather records

Advertising

Almaty Weather History for the Previous 24 Hours

Scroll right to see more
 ConditionsComfort  
Time TempWeatherWind HumidityBarometerVisibility
1:00 AM
Thu, Aug 25
57 °FPassing clouds.6 mph72%29.95 "HgN/A
12:30 AM57 °FPassing clouds.3 mph72%29.95 "HgN/A
12:00 AM57 °FPassing clouds.3 mph77%29.95 "HgN/A
11:30 PM
Wed, Aug 24
61 °FPassing clouds.3 mph68%29.95 "HgN/A
11:00 PM61 °FClear.3 mph68%29.98 "HgN/A
10:30 PM61 °FClear.3 mph68%29.98 "HgN/A
10:00 PM61 °FClear.3 mph63%29.98 "HgN/A
9:30 PM64 °FClear.6 mph60%29.98 "Hg3 mi
9:00 PM64 °FClear.3 mph60%29.98 "Hg3 mi
8:30 PM66 °FClear.3 mph60%29.98 "Hg3 mi
8:00 PM70 °FClear.3 mph53%29.98 "Hg3 mi
7:30 PM75 °FPassing clouds.1 mph39%29.95 "HgN/A
7:00 PM79 °FPassing clouds.3 mph34%29.95 "HgN/A
6:30 PM81 °FPassing clouds.6 mph28%29.95 "HgN/A
6:00 PM82 °FPassing clouds.6 mph26%29.95 "HgN/A
5:30 PM82 °FPassing clouds.6 mph26%29.98 "HgN/A
5:00 PM81 °FPassing clouds.6 mph30%29.98 "HgN/A
4:30 PM81 °FPassing clouds.8 mph30%29.98 "HgN/A
4:00 PM81 °FPassing clouds.3 mph28%29.98 "HgN/A
3:30 PM81 °FPassing clouds.3 mph28%29.98 "HgN/A
3:00 PM79 °FPassing clouds.6 mph30%29.98 "HgN/A
2:30 PM79 °FPassing clouds.8 mph28%29.98 "HgN/A
2:00 PM79 °FPassing clouds.8 mph30%30.01 "HgN/A
1:30 PM77 °FPassing clouds.6 mph32%30.01 "HgN/A
1:00 PM77 °FPassing clouds.6 mph30%30.01 "HgN/A
12:30 PM75 °FPassing clouds.8 mph29%30.04 "HgN/A
12:00 PM73 °FPassing clouds.6 mph33%30.04 "HgN/A
11:30 AM73 °FPassing clouds.6 mph29%30.04 "HgN/A
11:00 AM72 °FClear.6 mph31%30.04 "HgN/A
10:30 AM70 °FClear.3 mph33%30.07 "HgN/A
10:00 AM68 °FClear.3 mph35%30.07 "HgN/A
9:30 AM66 °FClear.3 mph43%30.07 "HgN/A
9:00 AM64 °FClear.1 mph52%30.07 "HgN/A
8:30 AM63 °FClear.1 mph52%30.07 "HgN/A
8:00 AM59 °FClear.1 mph55%30.07 "HgN/A
7:30 AM55 °FClear.3 mph67%30.07 "HgN/A
7:00 AM50 °FClear.1 mph71%30.07 "HgN/A
6:30 AM48 °FPassing clouds.3 mph76%30.07 "HgN/A
6:00 AM48 °FPassing clouds.3 mph76%30.07 "HgN/A
5:30 AM48 °FPassing clouds.3 mph76%30.07 "HgN/A
5:00 AM48 °FPassing clouds.3 mph76%30.07 "HgN/A
4:30 AM48 °FPassing clouds.3 mph76%30.07 "HgN/A
4:00 AM50 °FPassing clouds.3 mph71%30.07 "HgN/A
3:30 AM52 °FPassing clouds.6 mph67%30.07 "HgN/A
3:00 AM52 °FPassing clouds.6 mph67%30.07 "HgN/A
2:30 AM50 °FPassing clouds.3 mph76%30.07 "HgN/A
2:00 AM50 °FPassing clouds.3 mph76%30.07 "HgN/A
Weather by CustomWeather, © 2016

See weather overviewHow to use our weather pages